Wind_Speed
19 19 18 19 19 19 19 18 18 18 17 17 16 16 16 16 15 15 15 15 15 15 15 15 14 14 14 14 14 14 14 14 14 14 14 13 14 14 14 14 14 14 13
20 20 20 20 21 21 20 19 19 19 19 19 18 18 18 18 17 17 16 16 16 15 15 16 15 15 15 15 15 15 15 15 15 14 14 14 14 14 14 14 15 15 14
21 21 21 21 22 22 21 21 20 20 20 20 19 19 19 19 19 18 18 17 17 17 17 17 16 16 15 15 15 16 16 16 16 16 15 15 15 14 15 15 16 15 15
22 22 22 22 22 23 22 22 22 21 21 21 21 21 20 20 20 19 19 19 18 18 19 18 18 17 17 16 16 17 17 17 17 17 16 16 16 16 16 16 16 16 16
22 22 22 23 23 23 22 22 22 22 22 22 22 22 22 22 21 21 20 20 19 19 19 19 19 19 19 18 18 18 18 17 18 18 17 17 17 18 18 17 17 17 17
21 22 22 22 22 22 22 22 22 22 23 22 22 22 23 22 22 21 21 21 20 20 20 20 20 20 20 20 20 20 19 19 19 19 19 19 19 19 19 19 19 19 19
23 23 23 22 22 22 22 21 21 21 22 22 22 22 22 23 23 22 22 22 22 22 22 21 20 20 21 21 21 21 21 21 21 21 21 21 21 21 21 20 21 21 21
24 24 23 23 22 21 21 22 21 21 21 21 22 22 22 23 23 23 23 23 23 23 23 23 22 21 21 21 21 22 22 23 23 23 23 23 23 23 23 23 23 23 24
24 24 23 23 22 22 21 21 21 21 21 22 22 22 23 23 23 23 24 25 25 24 25 24 23 23 23 23 23 23 24 24 25 25 25 25 25 25 25 26 26 26 26
24 25 24 24 23 24 23 22 22 21 21 22 23 23 24 24 24 24 25 25 25 25 25 25 25 25 25 25 26 26 26 26 26 26 26 26 27 27 28 28 28 28 28
24 25 26 25 24 24 24 23 23 23 23 22 23 23 24 25 25 26 26 26 26 26 26 27 27 27 27 28 28 28 27 27 28 28 28 28 28 29 29 30 30 30 30
25 25 26 26 25 25 25 24 24 24 25 25 25 25 24 25 25 26 26 27 27 27 27 28 28 28 29 29 30 30 30 30 30 30 30 30 30 30 31 31 31 32 32
24 25 25 26 25 25 25 25 25 25 25 26 26 26 26 26 26 27 27 27 28 29 29 29 29 29 30 30 31 31 31 31 32 32 32 32 32 33 33 33 33 34 34
24 26 26 26 26 26 26 26 26 26 26 27 27 27 27 27 27 28 28 29 30 30 31 31 31 31 31 31 32 32 32 32 33 33 34 34 34 35 35 35 35 35 36
25 26 27 27 27 27 27 27 27 27 27 27 27 28 28 28 28 28 29 30 31 31 32 32 32 33 33 33 34 34 34 34 34 34 35 35 36 36 36 37 37 36 36
25 26 27 27 27 27 27 27 27 27 27 27 28 28 28 28 28 29 30 30 31 32 32 33 33 34 35 35 35 36 36 36 36 36 36 36 36 37 37 38 38 38 37
25 25 26 26 26 26 26 27 27 27 28 28 28 28 28 28 29 30 30 31 32 33 33 33 34 34 35 36 36 36 36 37 37 37 37 37 37 37 38 38 38 37 37
25 25 26 27 26 26 26 27 28 28 28 28 29 28 29 29 30 30 31 31 32 33 33 34 34 35 35 36 37 37 38 38 39 39 38 38 38 38 38 38 37 37 37
26 26 27 28 27 27 28 28 28 29 29 29 30 30 31 31 31 32 32 32 33 33 34 34 35 36 36 37 37 37 38 39 39 39 39 39 39 39 39 39 38 38 37
27 28 29 29 29 29 29 29 29 30 30 30 31 31 32 33 32 33 34 34 35 35 35 35 36 36 37 37 38 38 39 39 40 40 40 41 41 40 40 40 40 39 38
28 29 29 29 29 29 30 30 31 31 32 32 33 33 34 34 35 35 36 36 37 37 37 36 36 37 37 37 37 38 38 38 39 40 41 41 40 40 40 40 40 39 38
28 29 29 29 30 30 31 32 33 33 34 34 34 34 35 35 35 36 36 37 37 37 37 37 36 36 37 37 37 37 37 37 38 39 39 40 40 40 40 39 39 38 37
29 29 30 31 31 31 32 32 33 33 34 34 34 34 34 33 33 34 34 35 36 37 37 37 36 36 37 37 37 37 37 37 38 38 38 39 39 39 39 39 39 38 37
29 29 30 31 31 32 32 32 32 32 32 32 32 32 32 32 33 33 34 35 35 36 36 36 36 36 36 36 36 37 37 37 38 37 37 37 37 38 39 39 39 38 37
28 29 30 30 31 31 31 32 31 31 31 31 31 31 32 32 33 34 34 35 35 35 35 35 36 35 35 36 36 37 37 37 38 38 38 37 37 37 38 38 38 37 37
28 29 30 30 30 31 32 31 31 31 31 31 31 32 32 33 33 34 34 34 34 35 35 34 34 34 34 34 35 35 36 37 37 38 38 37 36 36 37 37 36 37 37
Wind_Direction
267 265 265 265 265 266 266 264 264 266 267 267 267 264 262 261 260 259 261 262 260 258 258 260 260 258 258 259 260 260 256 256 260 261 263 265 268 268 269 269 271 269 270
266 267 267 265 265 265 265 264 265 265 266 264 263 261 261 260 259 259 261 262 260 259 259 259 258 259 259 260 260 259 258 258 258 260 263 264 266 267 267 268 269 271 267
265 264 265 265 266 266 266 265 264 264 263 262 261 260 259 259 259 260 260 260 260 260 260 259 259 259 260 260 260 258 258 257 257 260 262 262 264 267 268 270 270 269 269
266 265 265 265 265 266 266 266 265 264 262 261 260 260 259 260 260 259 259 259 260 260 259 258 257 258 259 259 259 260 260 259 257 259 260 260 264 267 268 270 271 272 273
266 268 266 266 266 267 267 267 266 265 263 260 258 258 259 260 260 258 257 258 259 258 257 257 256 256 258 260 260 260 261 260 258 260 260 261 264 267 267 269 271 274 274
266 268 268 268 268 267 267 267 268 266 263 260 257 257 258 259 259 259 257 257 257 256 256 256 255 255 256 259 261 260 259 260 260 261 260 262 265 267 268 269 272 273 273
265 266 266 268 268 269 268 268 268 267 264 261 259 258 258 258 258 258 256 257 257 255 255 256 256 256 257 259 260 260 260 260 261 263 263 264 266 267 266 268 270 271 273
264 264 265 266 268 267 267 268 268 267 265 263 261 260 261 261 259 258 257 257 258 257 256 255 257 257 258 258 259 260 261 262 262 263 264 264 265 265 267 268 270 272 274
263 263 263 265 266 266 267 269 269 268 265 261 260 260 261 261 260 259 259 258 258 258 257 256 256 257 258 259 260 261 262 263 263 263 263 263 264 265 267 269 271 272 274
263 263 262 263 265 264 266 268 269 268 266 263 261 260 260 260 260 259 259 259 258 258 258 257 257 257 258 260 261 261 262 262 263 263 264 265 264 265 267 269 271 271 273
264 264 265 264 266 266 268 267 266 268 267 265 263 263 262 262 260 260 259 259 260 259 259 259 259 259 260 261 262 263 264 264 264 264 264 264 266 267 269 270 271 272 273
264 265 265 265 266 266 266 265 266 267 268 266 266 266 265 263 262 261 261 261 261 260 259 260 261 262 262 262 263 264 264 264 265 265 265 265 267 268 269 270 272 273 273
266 265 264 265 266 267 267 266 266 267 268 268 267 266 265 265 264 262 263 263 263 262 260 261 261 262 263 264 265 266 266 267 267 268 269 269 270 270 270 271 272 273 274
267 265 265 266 267 268 268 267 267 268 269 269 267 266 267 267 266 264 264 264 264 263 262 262 263 263 265 265 266 266 267 268 269 270 271 271 272 272 273 273 273 274 273
268 267 267 267 268 268 267 267 268 269 269 269 268 268 268 268 267 266 266 265 265 264 263 263 264 265 266 266 266 267 267 268 270 271 271 272 273 273 273 274 274 275 274
269 269 269 269 271 271 270 269 270 270 269 269 268 268 267 267 267 267 267 267 266 266 265 266 267 267 268 267 267 267 267 268 270 271 271 271 272 273 273 274 274 275 275
270 271 271 272 273 272 272 271 272 272 270 269 269 270 269 269 269 269 270 270 269 269 268 268 269 269 269 268 268 267 268 269 270 270 271 272 272 273 273 274 274 274 274
271 271 272 273 275 274 273 273 274 273 273 271 270 271 270 270 270 271 271 272 271 270 270 270 271 271 271 270 269 268 269 270 271 270 271 272 272 273 274 275 274 274 274
271 272 273 274 275 275 275 275 275 274 274 272 272 272 272 271 270 271 271 272 272 272 273 273 273 273 273 273 272 270 269 270 271 271 271 271 272 272 273 274 274 274 274
272 273 275 276 276 275 275 276 276 275 275 274 274 273 273 272 271 271 271 272 272 273 274 275 275 274 274 274 274 273 272 271 271 271 271 271 271 272 272 273 273 273 273
274 275 277 278 277 277 276 276 276 276 277 276 275 275 275 273 273 273 273 273 273 274 274 275 275 275 274 274 274 274 274 274 273 272 272 272 271 270 271 272 272 272 272
276 277 278 279 278 278 278 278 279 278 278 277 276 276 277 275 274 274 274 274 273 273 273 274 274 274 274 273 274 274 275 275 275 274 272 271 271 270 270 270 270 270 271
278 279 280 281 280 280 280 280 280 279 279 279 278 278 277 277 276 275 275 275 275 275 274 274 274 274 273 274 274 275 275 275 275 275 274 273 271 270 269 268 268 269 269
281 281 281 282 282 281 282 282 281 280 280 280 279 278 277 276 276 276 276 276 276 276 275 274 274 274 274 274 275 275 275 274 275 275 275 274 272 270 269 268 268 268 268
283 283 283 283 283 282 283 283 281 281 281 281 280 279 278 277 278 278 278 277 277 277 276 276 276 276 276 276 276 275 274 273 273 274 274 274 273 271 270 269 268 268 268
284 285 285 285 285 284 284 283 282 282 281 280 280 280 279 279 279 279 279 278 278 277 276 276 276 276 277 277 277 277 275 274 275 275 274 273 273 272 270 269 269 269 268
Height
5809 5809 5808 5808 5808 5808 5807 5807 5807 5807 5807 5807 5807 5807 5806 5806 5806 5806 5806 5806 5805 5805 5805 5805 5805 5805 5805 5805 5805 5805 5805 5805 5805 5805 5805 5805 5805 5805 5805 5805 5805 5805 5804
5803 5803 5803 5802 5802 5802 5802 5801 5802 5802 5801 5801 5802 5802 5802 5802 5802 5802 5801 5801 5801 5801 5801 5801 5801 5801 5801 5801 5801 5801 5801 5801 5802 5802 5802 5802 5801 5801 5801 5801 5801 5801 5801
5796 5796 5796 5796 5796 5796 5795 5795 5796 5796 5795 5796 5796 5796 5796 5796 5796 5796 5796 5796 5796 5796 5796 5796 5796 5797 5797 5797 5797 5797 5797 5797 5797 5798 5798 5798 5798 5797 5797 5797 5797 5797 5796
5789 5789 5789 5789 5789 5789 5789 5789 5789 5789 5789 5790 5790 5790 5790 5790 5791 5791 5791 5791 5791 5791 5791 5791 5792 5792 5792 5792 5793 5793 5793 5793 5793 5793 5793 5793 5793 5793 5793 5793 5792 5792 5792
5782 5782 5783 5783 5782 5782 5782 5782 5782 5782 5783 5783 5783 5783 5784 5784 5784 5785 5785 5785 5785 5786 5786 5786 5786 5787 5787 5788 5788 5788 5788 5788 5789 5789 5789 5789 5789 5788 5788 5788 5787 5787 5787
5776 5776 5776 5776 5776 5776 5776 5775 5775 5775 5775 5776 5776 5777 5777 5777 5777 5778 5779 5779 5779 5780 5780 5780 5781 5781 5782 5782 5782 5782 5783 5783 5783 5783 5784 5784 5783 5783 5783 5782 5782 5782 5782
5769 5770 5770 5770 5770 5770 5770 5769 5769 5769 5768 5769 5769 5770 5770 5770 5771 5771 5772 5773 5773 5774 5774 5774 5775 5775 5775 5776 5776 5777 5777 5777 5778 5778 5778 5778 5777 5777 5777 5777 5776 5776 5775
5763 5763 5763 5763 5763 5763 5763 5763 5763 5762 5762 5762 5762 5763 5764 5764 5764 5765 5765 5766 5766 5767 5767 5768 5768 5769 5769 5770 5770 5770 5771 5771 5771 5771 5771 5771 5771 5770 5770 5770 5770 5769 5769
5756 5756 5756 5757 5757 5757 5757 5757 5756 5756 5755 5755 5756 5756 5757 5757 5757 5758 5758 5759 5759 5760 5760 5761 5761 5762 5763 5763 5763 5764 5764 5764 5763 5764 5764 5764 5763 5763 5763 5763 5762 5762 5761
5748 5749 5749 5750 5750 5750 5750 5750 5749 5749 5749 5749 5749 5749 5749 5750 5750 5750 5751 5751 5752 5753 5753 5754 5754 5755 5755 5755 5755 5756 5756 5756 5756 5756 5756 5756 5756 5755 5755 5755 5754 5753 5753
5740 5741 5742 5742 5742 5742 5742 5742 5742 5742 5742 5742 5741 5742 5742 5742 5742 5742 5743 5743 5744 5744 5745 5746 5746 5746 5747 5747 5747 5748 5748 5747 5747 5747 5748 5747 5747 5747 5746 5746 5745 5744 5743
5733 5734 5734 5734 5735 5735 5735 5735 5735 5734 5734 5734 5734 5734 5734 5734 5734 5734 5734 5735 5735 5736 5737 5737 5738 5738 5738 5739 5739 5739 5739 5738 5738 5738 5738 5738 5738 5737 5737 5736 5735 5734 5733
5725 5726 5726 5727 5727 5727 5727 5727 5727 5726 5726 5726 5726 5726 5726 5725 5725 5726 5726 5726 5727 5727 5728 5728 5729 5729 5729 5729 5729 5729 5729 5729 5729 5729 5728 5728 5728 5727 5726 5725 5724 5723 5722
5718 5718 5718 5719 5719 5719 5719 5719 5718 5718 5718 5717 5717 5717 5717 5717 5717 5717 5717 5717 5717 5718 5718 5719 5719 5719 5719 5720 5720 5719 5719 5719 5719 5718 5718 5718 5717 5716 5715 5714 5713 5711 5711
5710 5710 5710 5710 5710 5710 5710 5710 5710 5709 5709 5709 5709 5709 5708 5708 5708 5708 5708 5708 5708 5708 5708 5709 5709 5709 5709 5709 5709 5709 5708 5708 5708 5707 5707 5706 5705 5704 5704 5702 5701 5699 5698
5702 5701 5701 5701 5701 5701 5701 5701 5700 5700 5700 5699 5699 5699 5699 5699 5699 5699 5698 5698 5698 5698 5698 5698 5698 5698 5698 5698 5698 5697 5697 5696 5696 5695 5695 5694 5693 5692 5691 5690 5689 5687 5686
5694 5693 5693 5693 5692 5692 5692 5692 5692 5691 5690 5690 5690 5689 5689 5689 5689 5689 5688 5688 5687 5687 5687 5687 5687 5687 5686 5686 5686 5685 5685 5685 5684 5683 5682 5681 5681 5680 5678 5678 5676 5675 5674
5685 5685 5684 5684 5683 5683 5683 5683 5682 5682 5681 5681 5680 5680 5679 5679 5679 5678 5678 5677 5677 5676 5676 5675 5675 5675 5674 5674 5673 5673 5672 5672 5671 5671 5670 5669 5668 5667 5666 5665 5664 5663 5662
5676 5676 5675 5675 5674 5674 5674 5673 5673 5672 5671 5671 5670 5670 5669 5669 5668 5668 5667 5667 5666 5665 5664 5664 5663 5663 5662 5661 5661 5660 5660 5659 5658 5657 5657 5656 5655 5654 5653 5652 5651 5650 5649
5667 5667 5666 5665 5664 5664 5664 5663 5663 5662 5661 5660 5660 5659 5658 5657 5657 5656 5656 5655 5654 5654 5653 5652 5651 5650 5649 5649 5648 5647 5646 5645 5645 5644 5643 5642 5641 5641 5640 5639 5638 5637 5637
5658 5657 5656 5655 5655 5654 5653 5652 5652 5651 5650 5649 5648 5648 5647 5646 5645 5645 5644 5643 5642 5641 5640 5639 5639 5637 5636 5635 5634 5633 5633 5632 5631 5630 5629 5628 5627 5627 5626 5626 5625 5624 5624
5648 5647 5646 5645 5644 5643 5642 5641 5640 5639 5638 5637 5636 5635 5634 5633 5632 5632 5631 5630 5629 5628 5627 5627 5626 5625 5623 5622 5622 5621 5619 5618 5617 5616 5615 5614 5614 5613 5613 5612 5612 5611 5611
5639 5637 5636 5635 5634 5633 5631 5630 5628 5627 5626 5624 5623 5622 5621 5620 5619 5619 5618 5617 5616 5615 5614 5613 5613 5612 5610 5609 5608 5607 5606 5605 5604 5603 5602 5601 5600 5600 5599 5599 5598 5598 5598
5629 5627 5626 5624 5623 5621 5620 5618 5617 5615 5614 5612 5611 5610 5609 5608 5607 5607 5605 5604 5603 5602 5601 5600 5599 5598 5597 5596 5595 5594 5593 5591 5590 5589 5588 5587 5586 5586 5585 5585 5585 5585 5585
5619 5617 5615 5614 5612 5610 5609 5607 5605 5604 5603 5601 5600 5599 5598 5597 5595 5594 5593 5592 5591 5590 5589 5588 5587 5586 5584 5583 5582 5581 5579 5578 5577 5576 5574 5574 5573 5572 5572 5572 5572 5571 5571
5609 5607 5605 5603 5601 5599 5598 5596 5594 5593 5591 5590 5589 5588 5586 5585 5584 5582 5581 5580 5578 5577 5576 5575 5574 5573 5572 5570 5569 5567 5566 5565 5563 5562 5561 5560 5560 5559 5559 5558 5559 5558 5558